This demonstration page uses our WeatherBlox Daily Observations layout. Learn more.

Left ArrowRight Arrow

34.02893, -84.19858

Hourly Observations for December 29, 2018

Temp ( °F °C ) Dew Point ( °F °C ) Humidity (%) Winds ( mph kmh ) Pressure ( in mb ) Visibility ( mi km ) Precip ( " mm )
12:53 am 00:53 Mostly Cloudy with Fog 44 6.7 44 6.7 100 100 Calm 30.13 1020 0 0 0.00 0.00
1:53 am 01:53 Mostly Cloudy with Fog 46 7.8 45 7.2 96 96 Calm 30.14 1021 1 1 0.00 0.00
2:47 am 02:47 Mostly Cloudy with Mist and Fog 43 6 43 6 100 100 Calm 30.18 1022 1 1 0.00 0.00
2:53 am 02:53 Mostly Cloudy with Fog 44 6.7 44 6.7 100 100 Calm 30.14 1021 0 0 0.00 0.00
3:04 am 03:04 Mostly Cloudy with Mist and Fog 44 6.7 44 6.7 100 100 Calm 30.18 1022 1 2 0.00 0.00
3:12 am 03:12 Mostly Cloudy with Fog 43 6.1 42 5.6 97 97 Calm 30.18 1022 1 1 0.00 0.00
3:25 am 03:25 Mostly Cloudy with Fog 44 6.7 43 6.1 96 96 Calm 30.18 1022 0 0 0.00 0.00
3:53 am 03:53 Mostly Cloudy with Fog 43 6.1 43 6.1 100 100 Calm 30.16 1022 0 0 0.00 0.00
4:53 am 04:53 Mostly Cloudy with Fog 48 8.9 48 8.9 100 100 NNW 7 11 30.16 1021 0 0 0.00 0.00
5:18 am 05:18 Cloudy with Mist and Fog 48 8.9 48 8.9 100 100 NW 9 15 30.18 1022 1 2 0.00 0.00
5:28 am 05:28 Mostly Cloudy with Mist and Fog 48 8.9 48 8.9 100 100 NNW 8 13 30.18 1022 3 5 0.00 0.00
5:38 am 05:38 Partly Cloudy with Mist and Fog 47 8.3 47 8.3 100 100 NNW 8 13 30.21 1023 5 8 0.00 0.00
5:53 am 05:53 Clear with Mist and Fog 46 7.8 46 7.8 100 100 NNW 5 7 30.18 1022 5 8 0.00 0.00
6:14 am 06:14 Partly Cloudy with Mist and Fog 48 8.9 47 8.3 96 96 NW 6 9 30.24 1024 5 8 0.00 0.00
6:24 am 06:24 Mostly Cloudy with Mist and Fog 48 8.9 48 8.9 100 100 NW 5 7 30.24 1024 5 8 0.00 0.00
6:53 am 06:53 Mostly Cloudy with Mist and Fog 47 8.3 47 8.3 100 100 NW 3 6 30.20 1023 4 6 0.00 0.00
7:14 am 07:14 Mostly Cloudy with Mist and Fog 47 8.3 46 7.8 97 97 NNW 7 11 30.24 1024 3 4 0.00 0.00
7:26 am 07:26 Cloudy with Mist and Fog 48 8.9 48 8.9 100 100 NNW 7 11 30.24 1024 4 6 0.00 0.00
7:53 am 07:53 Cloudy with Mist and Fog 48 8.9 47 8.3 96 96 Calm 30.23 1024 3 5 0.00 0.00
8:00 am 08:00 Cloudy with Mist and Fog 48 8.9 47 8.3 96 96 Calm 30.27 1025 3 5 0.00 0.00
8:10 am 08:10 Cloudy with Mist and Fog 47 8.3 47 8.3 100 100 Calm 30.27 1025 3 4 0.00 0.00
8:13 am 08:13 Cloudy with Mist and Fog 47 8.3 47 8.3 100 100 Calm 30.27 1025 1 1 0.00 0.00
8:20 am 08:20 Cloudy with Fog 47 8.3 47 8.3 100 100 Calm 30.27 1025 1 1 0.00 0.00
8:23 am 08:23 Cloudy with Mist and Fog 47 8.3 47 8.3 100 100 Calm 30.27 1025 1 2 0.00 0.00
8:53 am 08:53 Mostly Cloudy with Mist and Fog 49 9.4 49 9.4 100 100 SW 3 6 30.26 1025 2 3 0.00 0.00
9:14 am 09:14 Mostly Cloudy with Mist and Fog 49 9.4 48 8.9 97 97 WSW 3 6 30.30 1026 3 4 0.00 0.00
9:26 am 09:26 Cloudy with Mist and Fog 49 9.4 49 9.4 100 100 W 3 6 30.30 1026 3 4 0.00 0.00
9:37 am 09:37 Cloudy with Mist and Fog 50 10 49 9.4 96 96 WNW 5 7 30.30 1026 3 5 0.00 0.00
9:53 am 09:53 Cloudy with Mist and Fog 50 10 49 9.4 96 96 W 5 7 30.27 1025 3 5 0.00 0.00
10:26 am 10:26 Partly Cloudy with Mist and Fog 52 11.1 50 10 93 93 W 5 7 30.27 1025 5 8 0.00 0.00
10:53 am 10:53 Sunny with Mist and Fog 54 12.2 50 10 87 87 W 6 9 30.27 1025 6 10 0.00 0.00
11:53 am 11:53 Sunny 57 13.9 47 8.3 69 69 NW 8 13 30.23 1024 10 16 0.00 0.00
12:53 pm 12:53 Sunny 58 14.4 44 6.7 60 60 W 6 9 30.21 1023 10 16 0.00 0.00
1:53 pm 13:53 Sunny 58 14.4 44 6.7 60 60 NW 8 13 30.19 1022 10 16 0.00 0.00
2:53 pm 14:53 Sunny 57 13.9 41 5 55 55 W 8 13 30.19 1022 10 16 0.00 0.00
3:53 pm 15:53 Sunny 58 14.4 39 3.9 50 50 NNW 7 11 30.19 1022 10 16 0.00 0.00
4:53 pm 16:53 Sunny 56 13.3 41 5 57 57 NW 3 6 30.19 1022 10 16 0.00 0.00
5:53 pm 17:53 Clear 53 11.7 43 6.1 69 69 W 3 6 30.20 1023 10 16 0.00 0.00
6:53 pm 18:53 Partly Cloudy 53 11.7 45 7.2 74 74 Calm 30.20 1023 9 14 0.00 0.00
7:53 pm 19:53 Cloudy 53 11.7 45 7.2 74 74 W 3 6 30.21 1023 9 14 0.00 0.00
8:53 pm 20:53 Cloudy 52 11.1 43 6.1 72 72 NW 5 7 30.21 1023 10 16 0.00 0.00
9:53 pm 21:53 Cloudy 51 10.6 44 6.7 77 77 W 5 7 30.21 1023 9 14 0.00 0.03
10:53 pm 22:53 Cloudy with Light Rain 50 10 45 7.2 83 83 NNW 6 9 30.21 1023 7 11 0.00 0.03
11:53 pm 23:53 Cloudy with Light Rain 50 10 45 7.2 83 83 W 3 6 30.21 1023 8 13 0.00 0.03

Powered by AerisWeather